DELTA 1 R/B(2) *, 11792

Orbit data source: Space-Track

DELTA 1 R/B(2) *, 11792 is space debris in HEO originally from a launch on Wed, 26 Oct 1966 UTC launched from the Air Force Eastern Test Range (AFETR). Debris objects in space refer to the collection of defunct objects orbiting the Earth. Examples of debris include non-operational satellites, rocket bodies, and fragments generated from explosions, collisions, or faulty payload assembly.

Loading next visibility...
Identifier
11792, 1966-096C
Orbit
HEO
Country
Flag of USUS
Related business
Manufacturer
Unknown
Mission
Spacecraft
Bus & Motor
Unknown
Mass
Unknown
Launch date (UTC)
1966-10-26 (60 years ago)
Launch vehicle
Unknown
Launch site
Air Force Eastern Test Range (AFETR)
Object type
Payload
Rocket body
Debris
Shape & HBR
Unknown
Radar Cross Section
Medium (>0.1 m² and <1 m²)

Expand to show TLE details & history
Last TLE update: 12 hours ago

TLE from 12 hours ago
0 DELTA 1 R/B(2) *
1 11792U 66096C   26206.53911248  .00001388  00000-0  18667-2 0  9996
2 11792  17.8056  30.3373 6050222 326.9300   6.6975  3.84677212432864
Epoch: 2026-07-25T12:56Z
TLE epoch observation values (Epoch: 2026-07-25T12:56:19.318Z)
Latitude
-0.00006°
Longitude
-106.98293°
Altitude
867.728 km
Speed
9.319 km/s
True Right ascension
02h 01m 23s
True Declination
0° 00' 00"
Sunlit
Object was in daylight at epoch
Visualization orbit readout
Latitude
Unknown
Longitude
Unknown
Altitude
Unknown
Speed
Unknown
Apparent Right ascension
Unknown
Apparent Declination
Unknown
Sunlit
N/A
Visualization observer readout
Local Sidereal Time
14:04:00
Azimuth
Unknown
Elevation
Unknown
Doppler factor
Unknown
Orbital elements
Apogee altitude
21,244.315 km
Perigee altitude
419.436 km
Semi-major axis
17,210.013 km
Eccentricity
0.60502
Inclination
17.8056°
RAAN
30.3373°
Arg. of periapsis
326.93°
True anomaly
32.77918°
Mean anomaly
6.6975°
Eccentric anomaly
16.60226°
Mean motion
0.96133 °/min
Orbital period
374.48 mins
BSTAR
0.0018667
Loading maneuver chart data...
Computing Atmospheric mass density...
Loading historical data...
Loading historical data...
Loading historical data...
Loading historical data...
Loading historical data...
Loading historical data...
Loading historical data...
Other satellites on launch #96 in the year 1966 (1966-10-26 UTC)

Documentation

Showing up to 5 results
|